Location: W�rzburg
(49.7529°N, 9.8822°E)
Time: 22:52:24
(UTC+01:00)

ISS - Pass Details

Date: 05 January 2018
Orbit: 402 x 407 km, 51.6° (Epoch: 18 January)

Event Time Altitude Azimuth Distance (km) Brightness Sun altitude
Exits shadow 06:03:41 59° 32° (NNE) 474 -3.5 -20.5°
Drops below altitude 10° 06:06:37 10° 75° (ENE) 1,471 -0.1 -20.1°
Sets 06:08:43 0° 78° (ENE) 2,334 1.2 -19.7°
